International Falls, MN

6:33 PM CDT on April 24, 2017 (GMT -0500)
Falls International

Weather History for KINL - February, 2013

Change the Weather History Date:

Wednesday, February 13, 2013

  Actual Average Record
Temperature  
Mean Temperature 23 °F 10 °F  
Max Temperature 29 °F 21 °F 46 °F (2011)
Min Temperature 16 °F -2 °F -39 °F (1909)
Degree Days  
Heating Degree Days 42 55  
Month to date heating degree days 772 746  
Since 1 July heating degree days 6734 6799  
Cooling Degree Days 0 0  
Month to date cooling degree days 0 0  
Year to date cooling degree days 0 0  
Moisture  
Dew Point 19 °F    
Average Humidity 89    
Maximum Humidity 100    
Minimum Humidity 78    
Precipitation  
Precipitation T in 0.02 in 0.60 in (1923)
Month to date precipitation 0.90 0.23  
Year to date precipitation 3.05 0.85  
Snow  
Snow T in 0.40 in 4.90 in (1962)
Month to date snowfall 12.1 5.0  
Since 1 July snowfall 61.6 51.0  
Snow Depth 25.00 in    
Sea Level Pressure  
Sea Level Pressure 29.66 in    
Wind  
Wind Speed 3 mph (West)    
Max Wind Speed 12 mph    
Max Gust Speed 15 mph    
Visibility 7 miles    
Events Fog    
T = Trace of Precipitation, MM = Missing Value Source: NWS Daily Summary

Daily Weather History Graph

Daily Weather History Graph

Search for Another Location

Airport or City:

Trip Planner

Search our weather history database for the weather conditions in past years. The results will help you decide how hot, cold, wet, or windy it might be!

Date:

Astronomy

Feb. 13, 2013 Rise Set
Actual Time 7:24 AM CST 5:32 PM CST
Civil Twilight 6:51 AM CST 6:04 PM CST
Nautical Twilight 6:14 AM CST 6:41 PM CST
Astronomical Twilight 5:38 AM CST 7:18 PM CST
Moon 8:31 AM CST (2/13) 10:01 PM CST (2/13)
Length of Visible Light 11h 13m
Length of Day
10h 08m
Waxing Crescent, 14% of the Moon is Illuminated
Feb 13
Waxing Crescent
Feb 17
First Quarter
Feb 25
Full
Mar 4
Last Quarter
Mar 11
New

Hourly Weather History & Observations

Time (CST) Temp. Windchill Dew Point Humidity Pressure Visibility Wind Dir Wind Speed Gust Speed Precip Events Conditions
12:55 AM 18.0 °F 9.8 °F 16.0 °F 92% 29.68 in 10.0 mi SW 5.8 mph - N/A   Overcast
1:55 AM 19.9 °F 10.1 °F 17.1 °F 89% 29.67 in 10.0 mi SW 8.1 mph - N/A   Mostly Cloudy
2:55 AM 19.0 °F 10.0 °F 17.1 °F 92% 29.66 in 10.0 mi SW 6.9 mph - N/A   Mostly Cloudy
3:55 AM 19.9 °F 13.4 °F 17.1 °F 89% 29.66 in 10.0 mi WSW 4.6 mph - N/A   Clear
4:55 AM 19.0 °F 11.1 °F 16.0 °F 88% 29.66 in 10.0 mi WSW 5.8 mph - N/A   Clear
5:55 AM 18.0 °F 9.8 °F 16.0 °F 92% 29.66 in 10.0 mi West 5.8 mph - N/A   Partly Cloudy
6:40 AM 15.8 °F 7.2 °F 14.0 °F 93% 29.60 in 10.0 mi West 5.8 mph - N/A   Mostly Cloudy
6:55 AM 18.0 °F 8.7 °F 16.0 °F 92% 29.67 in 6.0 mi NW 6.9 mph - N/A   Overcast
7:13 AM 19.4 °F 14.3 °F 17.6 °F 93% 29.60 in 2.0 mi NW 3.5 mph - N/A   Overcast
7:21 AM 17.6 °F 8.2 °F 17.6 °F 100% 29.61 in 1.2 mi NW 6.9 mph - N/A   Overcast
7:31 AM 17.6 °F 10.7 °F 17.6 °F 100% 29.60 in 0.5 mi NW 4.6 mph - N/A Fog Light Freezing Fog
7:39 AM 17.6 °F 8.2 °F 17.6 °F 100% 29.61 in 0.2 mi NW 6.9 mph - N/A Fog Light Freezing Fog
7:55 AM 18.0 °F 11.1 °F 17.1 °F 96% 29.67 in 0.2 mi NNW 4.6 mph - N/A Fog Light Freezing Fog
8:55 AM 18.0 °F - 17.1 °F 96% 29.67 in 0.2 mi Calm Calm - N/A Fog Light Freezing Fog
9:55 AM 19.9 °F - 18.0 °F 92% 29.68 in 0.2 mi Calm Calm - N/A Fog Light Freezing Fog
10:14 AM 19.4 °F 14.3 °F 19.4 °F 100% 29.62 in 0.8 mi SW 3.5 mph - N/A   Overcast
10:38 AM 21.2 °F - 19.4 °F 93% 29.62 in 1.8 mi Calm Calm - N/A   Overcast
10:55 AM 21.0 °F 16.2 °F 19.0 °F 92% 29.69 in 1.2 mi West 3.5 mph - N/A   Overcast
11:16 AM 21.2 °F 16.4 °F 19.4 °F 93% 29.62 in 3.0 mi West 3.5 mph - N/A   Overcast
11:55 AM 21.9 °F 17.2 °F 19.9 °F 92% 29.69 in 10.0 mi West 3.5 mph - N/A   Overcast
12:45 PM 23.0 °F - 21.2 °F 93% 29.61 in 10.0 mi Calm Calm - N/A   Overcast
12:55 PM 24.1 °F - 21.9 °F 91% 29.67 in 10.0 mi Calm Calm - N/A   Overcast
1:55 PM 25.0 °F 19.3 °F 21.9 °F 88% 29.65 in 10.0 mi SSW 4.6 mph - N/A   Overcast
2:16 PM 24.8 °F - 21.2 °F 86% 29.59 in 10.0 mi Calm Calm - N/A   Overcast
2:35 PM 26.6 °F - 21.2 °F 80% 29.59 in 10.0 mi Calm Calm - N/A   Overcast
2:55 PM 28.0 °F 24.2 °F 23.0 °F 81% 29.65 in 10.0 mi WNW 3.5 mph - N/A   Overcast
3:19 PM 26.6 °F 21.2 °F 23.0 °F 86% 29.58 in 10.0 mi SSW 4.6 mph - N/A   Overcast
3:55 PM 28.9 °F 25.2 °F 23.0 °F 78% 29.65 in 10.0 mi West 3.5 mph - N/A   Overcast
4:55 PM 28.0 °F - 23.0 °F 81% 29.66 in 10.0 mi Calm Calm - N/A   Overcast
5:55 PM 26.1 °F - 21.0 °F 81% 29.68 in 10.0 mi Calm Calm - N/A   Overcast
6:55 PM 21.0 °F - 19.9 °F 96% 29.69 in 10.0 mi Calm Calm - N/A   Overcast
7:55 PM 23.0 °F - 19.9 °F 88% 29.70 in 10.0 mi Calm Calm - N/A   Overcast
8:55 PM 21.0 °F - 19.9 °F 96% 29.70 in 10.0 mi Calm Calm - N/A   Overcast
9:55 PM 23.0 °F - 21.0 °F 92% 29.70 in 10.0 mi Calm Calm - N/A   Overcast
10:55 PM 23.0 °F 14.7 °F 19.9 °F 88% 29.71 in 10.0 mi NNW 6.9 mph - N/A   Overcast
11:55 PM 23.0 °F 13.1 °F 19.0 °F 85% 29.74 in 10.0 mi North 9.2 mph - N/A   Clear